St. Cloud, MN

4:29 AM CDT on April 28, 2017 (GMT -0500)
Saint Cloud Regional

Weather History for KSTC - January, 2013

Change the Weather History Date:

Sunday, January 13, 2013

  Actual Average Record
Temperature  
Mean Temperature 3 °F 11 °F  
Max Temperature 7 °F 21 °F 47 °F (1980)
Min Temperature -2 °F 2 °F -35 °F (1916)
Degree Days  
Heating Degree Days 62 54  
Month to date heating degree days 616 695  
Since 1 July heating degree days 3889 4142  
Cooling Degree Days 0 0  
Month to date cooling degree days 0 0  
Year to date cooling degree days 0 0  
Moisture  
Dew Point -5 °F    
Average Humidity 74    
Maximum Humidity 79    
Minimum Humidity 68    
Precipitation  
Precipitation T in 0.02 in 0.50 in (1923)
Month to date precipitation 0.25 0.31  
Year to date precipitation 0.25 0.31  
Snow  
Snow 0.10 in 0.30 in 5.00 in (1923)
Month to date snowfall 0.6 3.9  
Since 1 July snowfall 18.8 22.5  
Snow Depth 4.00 in    
Sea Level Pressure  
Sea Level Pressure 30.20 in    
Wind  
Wind Speed 7 mph (WNW)    
Max Wind Speed 12 mph    
Max Gust Speed 15 mph    
Visibility 9 miles    
Events Snow    
T = Trace of Precipitation, MM = Missing Value Source: NWS Daily Summary

Daily Weather History Graph

Daily Weather History Graph

Search for Another Location

Airport or City:

Trip Planner

Search our weather history database for the weather conditions in past years. The results will help you decide how hot, cold, wet, or windy it might be!

Date:

Astronomy

Jan. 13, 2013 Rise Set
Actual Time 7:53 AM CST 4:56 PM CST
Civil Twilight 7:20 AM CST 5:30 PM CST
Nautical Twilight 6:43 AM CST 6:07 PM CST
Astronomical Twilight 6:07 AM CST 6:42 PM CST
Moon 8:44 AM CST (1/13) 7:46 PM CST (1/13)
Length of Visible Light 10h 09m
Length of Day
9h 03m
Waxing Crescent, 5% of the Moon is Illuminated
Jan 13
Waxing Crescent
Jan 18
First Quarter
Jan 26
Full
Feb 3
Last Quarter
Feb 10
New

Hourly Weather History & Observations

Time (CST) Temp. Windchill Dew Point Humidity Pressure Visibility Wind Dir Wind Speed Gust Speed Precip Events Conditions
12:53 AM -0.0 °F -13.0 °F -6.0 °F 76% 30.15 in 10.0 mi NW 6.9 mph - N/A   Clear
1:53 AM -0.0 °F -11.6 °F -6.0 °F 76% 30.16 in 10.0 mi WNW 5.8 mph - N/A   Clear
2:53 AM -0.9 °F -15.3 °F -7.1 °F 75% 30.14 in 10.0 mi NW 8.1 mph - N/A   Clear
3:53 AM -0.9 °F -15.3 °F -7.1 °F 75% 30.14 in 10.0 mi NW 8.1 mph - N/A   Clear
4:53 AM -2.0 °F -16.6 °F -8.0 °F 76% 30.16 in 10.0 mi WNW 8.1 mph - N/A   Clear
5:53 AM -2.0 °F -18.7 °F -8.0 °F 76% 30.18 in 10.0 mi NW 10.4 mph - N/A   Overcast
6:53 AM -2.0 °F -19.6 °F -8.0 °F 76% 30.19 in 10.0 mi NW 11.5 mph - N/A   Overcast
7:53 AM -2.0 °F -15.4 °F -8.0 °F 76% 30.21 in 10.0 mi NNW 6.9 mph - N/A   Mostly Cloudy
8:53 AM -0.9 °F -17.4 °F -7.1 °F 75% 30.25 in 3.0 mi NW 10.4 mph - 0.00 in Snow Light Snow
9:15 AM -0.4 °F -16.7 °F -5.8 °F 78% 30.13 in 1.8 mi NW 10.4 mph - 0.00 in Snow Light Snow
9:32 AM -0.4 °F -14.7 °F -5.8 °F 78% 30.14 in 2.0 mi NW 8.1 mph - 0.00 in Snow Light Snow
9:53 AM -0.0 °F -15.3 °F -6.0 °F 76% 30.25 in 2.0 mi NW 9.2 mph - 0.00 in Snow Light Snow
10:08 AM -0.4 °F -13.4 °F -5.8 °F 78% 30.14 in 5.0 mi NW 6.9 mph - 0.00 in Snow Light Snow
10:53 AM 1.0 °F -12.9 °F -6.0 °F 72% 30.24 in 10.0 mi NW 8.1 mph - 0.00 in   Scattered Clouds
11:53 AM 3.0 °F -11.5 °F -5.1 °F 69% 30.19 in 10.0 mi NW 9.2 mph - N/A   Scattered Clouds
12:53 PM 5.0 °F -8.1 °F -2.9 °F 70% 30.17 in 10.0 mi NNW 8.1 mph - N/A   Overcast
1:53 PM 5.0 °F -5.6 °F -2.9 °F 70% 30.18 in 10.0 mi WNW 5.8 mph - N/A   Overcast
2:53 PM 7.0 °F -6.6 °F -2.0 °F 67% 30.20 in 10.0 mi WNW 9.2 mph - N/A   Scattered Clouds
3:53 PM 7.0 °F -5.7 °F -2.0 °F 67% 30.22 in 10.0 mi West 8.1 mph - N/A   Clear
4:53 PM 7.0 °F 0.1 °F -2.0 °F 67% 30.23 in 10.0 mi West 3.5 mph - N/A   Partly Cloudy
5:53 PM 6.1 °F -5.6 °F -0.9 °F 73% 30.25 in 10.0 mi WSW 6.9 mph - N/A   Scattered Clouds
6:53 PM 5.0 °F -5.6 °F -2.0 °F 73% 30.25 in 10.0 mi WSW 5.8 mph - N/A   Partly Cloudy
7:53 PM 5.0 °F -4.1 °F -2.0 °F 73% 30.26 in 10.0 mi WSW 4.6 mph - N/A   Mostly Cloudy
8:53 PM 3.9 °F -8.2 °F -2.0 °F 76% 30.27 in 10.0 mi West 6.9 mph - N/A   Clear
9:53 PM 3.9 °F -5.3 °F -2.0 °F 76% 30.28 in 10.0 mi SW 4.6 mph - N/A   Partly Cloudy
11:53 PM 1.9 °F -9.2 °F -2.0 °F 83% 30.30 in 10.0 mi WSW 5.8 mph - N/A   Clear